Weather in Rosiori de Vede

Romania     44°06′30″N   24°59′41″E
temp.,
°C
wind,
m/s
gust,
m/s
humid.,
%
clouds,
%
prec.,
mm/h
press.,
hPa
HPBL,
m
2 december, thu
thu223:00+5wsw34742 0.0 101262
02:00+5w22780 0.0 101119
05:00+4wsw33771 0.0 101126
08:00+4ssw22745 0.0 101119
11:00+8ssw2257100 0.0 1010194
14:00+10e1151100 0.0 1009265
17:00+8e116298 0.0 100810
20:00+7e22647 0.0 100816
3 december, fri
fri323:00+6ese226710 0.0 100711
02:00+6se11675 0.0 100610
05:00+6sse116855 0.0 100610
08:00+6ssw225986 0.0 100610
11:00+10ssw1247100 0.0 1007151
14:00+11w2350100 0.0 1006319
17:00+9wnw3364100 0.0 100854
20:00+7wsw4673100 0.0 1011163
4 december, sat
sat423:00+6w4785100 0.0 1012312
02:00+5wsw2388100 0.3 1013252
05:00+5e1290100 0.4 1013221
08:00+4e5882100 0.4 1014468
11:00+4e5780100 0.0 1015518
14:00+4e447999 0.0 1013504
17:00+5ene348194 0.0 1013409
20:00+4ene3384100 0.0 1013234
5 december, sun
sun523:00+3ene238888 0.0 101288
02:00+3ne229210 0.0 101218
05:00+2ese22935 0.0 101124
08:00+2e119297 0.0 101110
11:00+6se117738 0.0 1011217
14:00+8nne10695 0.0 1009350
17:00+7e227737 0.0 100915
20:00+6ene2282100 0.0 100925
6 december, mon
mon623:00+5ene3386100 0.0 100832
02:00+5nne338816 0.0 100846
05:00+4ene339074 0.0 100737
08:00+4e349399 0.0 100676
11:00+8e2283100 0.0 1007193
14:00+9w4578100 0.0 1008430
17:00+7w5887100 0.9 1010482
20:00+5w61173100 1.8 1013630